Location: Newark
(49.8969°N, 3.3422°E)
Time: 21:00:07
(UTC+00:00)

Explorer 7 - Pass Details

Date: 02 February 2020
Orbit: 485 x 679 km, 50.3° (Epoch: 26 February)

Event Time Altitude Azimuth Distance (km) Brightness Sun altitude
Rises 18:14:43 0° 192° (SSW) 2,674 10.6 -15.1°
Reaches altitude 10° 18:18:06 10° 163° (SSE) 1,746 9.3 -15.6°
Enters shadow 18:19:31 12° 142° (SE) 1,588 8.9 -15.8°
Maximum altitude 18:19:47 12° 137° (SE) 1,582 - -15.9°
Drops below altitude 10° 18:21:26 10° 112° (ESE) 1,715 - -16.1°
Sets 18:24:41 0° 82° (E) 2,575 - -16.7°
